This is the latest recevied weather packets stored in our database for station/object KC5EZZ-2. If no packets are shown the sender has not sent any weather packets the latest 1 day(s).
| Time | Temp. | Humidity | Pressure | Rain* | Wind** | Luminosity | Snow |
|---|---|---|---|---|---|---|---|
| 1777994349 | 26.11° C | - | - | 0 mm | 2.68 m/s, 198° | - | - |
| 1777994046 | 25.56° C | - | - | 0 mm | 3.58 m/s, 195° | - | - |
| 1777993447 | 25° C | - | - | 0 mm | 3.58 m/s, 172° | - | - |
| 1777993189 | 25° C | - | - | 0 mm | 3.58 m/s, 217° | - | - |
| 1777993145 | 25° C | - | - | 0 mm | 3.58 m/s, 217° | - | - |
| 1777992884 | 24.44° C | - | - | 0 mm | 4.02 m/s, 184° | - | - |
| 1777992845 | 24.44° C | - | - | 0 mm | 4.02 m/s, 184° | - | - |
| 1777992545 | 24.44° C | - | - | 0 mm | 3.13 m/s, 218° | - | - |
| 1777991942 | 23.89° C | - | - | 0 mm | 5.36 m/s, 225° | - | - |
| 1777991642 | 23.89° C | - | - | 0 mm | 3.58 m/s, 208° | - | - |
| 1777991371 | 23.33° C | - | - | 0 mm | 4.92 m/s, 203° | - | - |
| 1777991340 | 23.33° C | - | - | 0 mm | 4.92 m/s, 203° | - | - |
| 1777991084 | 23.33° C | - | - | 0 mm | 4.02 m/s, 207° | - | - |
| 1777991040 | 23.33° C | - | - | 0 mm | 4.02 m/s, 207° | - | - |
| 1777990772 | 22.78° C | - | - | 0 mm | 4.47 m/s, 191° | - | - |
| 1777990741 | 22.78° C | - | - | 0 mm | 4.47 m/s, 191° | - | - |
| 1777990470 | 22.78° C | - | - | 0 mm | 2.68 m/s, 191° | - | - |
| 1777990438 | 22.78° C | - | - | 0 mm | 2.68 m/s, 191° | - | - |
| 1777990183 | 23.33° C | - | - | 0 mm | 4.02 m/s, 169° | - | - |
| 1777990138 | 23.33° C | - | - | 0 mm | 4.02 m/s, 169° | - | - |
| 1777989838 | 22.78° C | - | - | 0 mm | 4.47 m/s, 193° | - | - |
| 1777989536 | 22.78° C | - | - | 0 mm | 4.02 m/s, 173° | - | - |
| 1777989234 | 22.22° C | - | - | 0 mm | 4.02 m/s, 225° | - | - |
| 1777988935 | 22.22° C | - | - | 0 mm | 4.92 m/s, 212° | - | - |
| 1777988663 | 22.22° C | - | - | 0 mm | 4.02 m/s, 204° | - | - |
* Rain latest hour (hover to see other rain measurements)
** Current wind speed in m/s (hover to see current wind gust speed)